EW5589 Weather Reports


time (UTC)temp
C
wind
direction
speed
KPH
gust
KPH
rain 1hr
cm
rain 24hr
cm
rain mn
cm
humidity
%
barometer
mb
20260509111536 8 160 3.2 8.0 0.00 0.05 0.00 77 1008.0
20260509110033 8 360 3.2 8.0 0.00 0.05 0.00 77 1008.0
20260509104541 7 360 3.2 8.0 0.00 0.05 0.00 77 1007.9
20260509103031 7 360 3.2 6.4 0.00 0.05 0.00 76 1007.8
20260509101536 7 360 3.2 6.4 0.00 0.05 0.00 75 1007.8
20260509100028 7 360 4.8 9.7 0.00 0.05 0.00 75 1007.8
20260509094532 7 360 4.8 8.0 0.00 0.05 0.00 76 1007.9
20260509093010 7 360 3.2 4.8 0.00 0.05 0.00 76 1007.8
20260509091508 7 360 3.2 4.8 0.00 0.05 0.00 77 1007.9
20260509090056 7 360 3.2 6.4 0.00 0.05 0.00 76 1008.0
20260509084548 7 360 3.2 4.8 0.00 0.05 0.00 76 1008.1
20260509083035 7 360 4.8 8.0 0.00 0.05 0.00 75 1008.2
20260509081547 7 360 3.2 6.4 0.00 0.05 0.00 74 1008.2
20260509080031 7 360 4.8 6.4 0.00 0.05 0.00 73 1008.4
20260509074530 7 360 4.8 8.0 0.00 0.05 0.00 72 1008.5
20260509073040 7 360 4.8 8.0 0.00 0.05 0.05 73 1008.7
20260509071528 7 360 4.8 8.0 0.00 0.05 0.05 73 1008.7
20260509070038 7 360 3.2 6.4 0.00 0.05 0.05 73 1008.9
20260509064525 7 360 4.8 8.0 0.00 0.05 0.05 72 1009.0
20260509063004 8 360 4.8 8.0 0.00 0.05 0.05 72 1009.1
20260509061503 8 360 4.8 9.7 0.00 0.05 0.05 71 1009.3
20260509060056 8 360 6.4 9.7 0.00 0.05 0.05 73 1009.5
20260509054543 8 360 4.8 6.4 0.00 0.05 0.05 73 1009.6
20260509053024 8 360 3.2 6.4 0.00 0.05 0.05 74 1009.9
20260509051523 8 360 3.2 6.4 0.00 0.05 0.05 73 1010.0
20260509050008 8 360 3.2 6.4 0.00 0.05 0.05 73 1010.0
20260509044506 8 360 3.2 6.4 0.00 0.05 0.05 75 1010.1
20260509043050 8 360 3.2 6.4 0.00 0.08 0.05 74 1010.2
20260509041547 8 360 3.2 6.4 0.00 0.08 0.05 74 1010.3
20260509040030 8 360 3.2 8.0 0.00 0.08 0.05 75 1010.4
20260509034530 9 360 4.8 6.4 0.00 0.08 0.05 75 1010.5
20260509033015 8 360 4.8 8.0 0.00 0.10 0.05 75 1010.6
20260509031510 8 360 4.8 8.0 0.00 0.10 0.05 75 1010.6
20260509030055 9 360 6.4 9.7 0.00 0.10 0.05 73 1010.8
20260509024551 9 360 6.4 11.3 0.00 0.10 0.05 72 1010.8
20260509023033 9 360 6.4 9.7 0.00 0.18 0.05 72 1010.7
20260509021532 9 360 6.4 8.0 0.00 0.18 0.05 71 1010.7
20260509020029 9 360 4.8 8.0 0.00 0.18 0.05 72 1010.8
20260509014532 9 360 4.8 8.0 0.00 0.18 0.05 72 1010.8
20260509013059 9 360 3.2 4.8 0.00 0.18 0.05 72 1010.9
20260509011555 9 360 4.8 8.0 0.00 0.18 0.05 72 1010.8
20260509010037 9 360 0.0 4.8 0.00 0.18 0.05 73 1010.5
20260509004537 9 360 4.8 9.7 0.00 0.18 0.05 72 1010.3
20260509003031 9 360 6.4 11.3 0.00 0.18 0.05 73 1010.2
20260509001523 9 360 8.0 12.9 0.00 0.18 0.05 75 1010.1
20260509000022 10 360 11.3 14.5 0.00 0.18 0.05 73 1010.1
20260508234522 10 73 6.4 9.7 0.00 0.18 0.05 71 1010.0
20260508233022 10 360 8.0 11.3 0.00 0.18 0.05 71 1009.9
20260508231521 10 82 6.4 9.7 0.00 0.18 0.05 70 1010.0
20260508230021 10 82 8.0 12.9 0.00 0.18 0.05 71 1010.1
20260508224520 10 73 8.0 12.9 0.00 0.18 0.05 72 1010.0
20260508223015 9 75 6.4 11.3 0.00 0.18 0.05 74 1010.1
20260508221507 9 60 8.0 12.9 0.00 0.18 0.05 76 1010.1
20260508220007 10 77 9.7 16.1 0.00 0.18 0.05 77 1010.2
20260508214514 9 41 3.2 9.7 0.00 0.18 0.05 72 1010.3
20260508213005 9 83 9.7 14.5 0.00 0.18 0.05 78 1010.4
20260508211505 9 34 9.7 14.5 0.00 0.18 0.05 77 1010.4
20260508210002 10 94 4.8 9.7 0.00 0.18 0.05 74 1010.5
20260508204502 10 86 9.7 12.9 0.00 0.18 0.05 73 1010.7
20260508203107 9 82 11.3 14.5 0.00 0.18 0.05 73 1010.7
20260508201546 11 84 8.0 12.9 0.00 0.18 0.05 68 1010.9
20260508200040 11 29 3.2 8.0 0.00 0.18 0.05 67 1011.2
20260508194518 10 47 3.2 9.7 0.00 0.18 0.05 70 1011.3
20260508193016 10 51 3.2 9.7 0.00 0.18 0.05 71 1011.4
20260508191558 10 41 1.6 11.3 0.00 0.18 0.05 70 1011.6
20260508190058 10 31 3.2 12.9 0.00 0.18 0.05 72 1011.7
20260508184542 10 354 3.2 12.9 0.00 0.18 0.05 70 1011.5
20260508183040 10 63 6.4 12.9 0.00 0.18 0.05 71 1011.6
20260508181533 10 37 4.8 17.7 0.00 0.18 0.05 74 1011.6
20260508180026 10 352 3.2 12.9 0.00 0.18 0.05 72 1011.7
20260508174531 10 74 4.8 8.0 0.00 0.18 0.05 72 1011.8
20260508173025 10 9 6.4 16.1 0.00 0.18 0.05 70 1011.9
20260508171526 10 197 6.4 17.7 0.00 0.18 0.05 63 1011.9
20260508170020 10 221 6.4 14.5 0.00 0.18 0.05 66 1012.0
20260508164518 9 186 6.4 16.1 0.00 0.18 0.05 67 1012.3
20260508163018 8 137 6.4 16.1 0.00 0.18 0.05 69 1012.4
20260508161555 8 202 9.7 14.5 0.00 0.18 0.05 72 1012.6
20260508160054 8 187 4.8 16.1 0.00 0.18 0.05 71 1012.7
20260508154536 8 295 3.2 11.3 0.00 0.18 0.05 74 1012.7
20260508153032 7 251 9.7 14.5 0.00 0.18 0.05 79 1012.7
20260508151527 7 198 11.3 20.9 0.00 0.18 0.05 80 1012.7
20260508150027 7 186 11.3 17.7 0.00 0.18 0.05 83 1012.6
20260508144513 7 360 11.3 17.7 0.00 0.18 0.05 85 1012.6
20260508143013 7 226 12.9 19.3 0.00 0.18 0.05 85 1012.6
20260508141512 6 360 11.3 19.3 0.00 0.18 0.05 86 1012.5
20260508140008 6 204 12.9 19.3 0.00 0.18 0.05 85 1012.3
20260508134506 5 360 8.0 14.5 0.00 0.18 0.05 87 1012.3
20260508133006 5 360 11.3 24.1 0.05 0.18 0.05 87 1012.6
20260508131547 5 360 17.7 24.1 0.05 0.18 0.05 87 1012.6
20260508130046 6 360 11.3 17.7 0.05 0.18 0.05 87 1012.5
20260508124530 5 360 12.9 16.1 0.05 0.18 0.05 91 1012.3
20260508123037 6 360 6.4 11.3 0.00 0.13 0.00 93 1012.5
20260508121510 6 360 4.8 9.7 0.00 0.13 0.00 93 1012.4
20260508120004 6 360 1.6 6.4 0.00 0.13 0.00 93 1012.2
20260508114544 6 360 4.8 8.0 0.00 0.13 0.00 93 1012.0
20260508113050 6 360 4.8 9.7 0.00 0.13 0.00 93 1011.6